This demonstration page uses our WeatherBlox Daily Observations layout. Learn more.

Left ArrowRight Arrow

41.86663, -103.66717

Hourly Observations for May 23, 2021

Temp ( °F °C ) Dew Point ( °F °C ) Humidity (%) Winds ( mph kmh ) Pressure ( in mb ) Visibility ( mi km ) Precip ( " mm )
12:04 am 00:04 Cloudy 51 10.6 50 10 96 96 ENE 7 11 30.06 1018 10 16 0.00 0.00
12:24 am 00:24 Cloudy 53 11.7 51 10.6 93 93 ENE 8 13 30.03 1017 10 16 0.00 0.00
12:53 am 00:53 Cloudy 53 11.7 52 11.1 96 96 ENE 6 9 30.05 1018 10 16 0.00 0.00
1:53 am 01:53 Cloudy 56 13.3 55 12.8 97 97 ESE 14 22 30.02 1017 10 16 0.00 0.00
2:53 am 02:53 Cloudy 57 13.9 57 13.9 100 100 ESE 18 30 29.98 1015 9 14 0.00 0.00
3:45 am 03:45 Partly Cloudy 57 13.9 56 13.3 96 96 ESE 14 22 29.91 1013 10 16 0.00 0.00
3:53 am 03:53 Partly Cloudy 57 13.9 56 13.3 96 96 ESE 14 22 29.95 1014 10 16 0.00 0.00
4:41 am 04:41 Cloudy with Nearby Thunderstorms 58 14.4 56 13.3 93 93 ESE 13 20 29.89 1012 10 16 0.00 0.00
4:53 am 04:53 Cloudy with Light Rain 58 14.4 57 13.9 97 97 SE 7 11 29.96 1014 10 16 0.00 0.00
5:53 am 05:53 Cloudy with Light Rain 59 15 55 12.8 87 87 S 12 19 29.98 1015 9 14 0.01 0.25
6:53 am 06:53 Mostly Sunny 59 15 55 12.8 87 87 SE 17 28 29.96 1014 10 16 0.03 0.76
7:53 am 07:53 Mostly Sunny 62 16.7 58 14.4 86 86 SE 22 35 29.94 1014 10 16 0.00 0.00
8:53 am 08:53 Mostly Cloudy 62 16.7 59 15 90 90 ESE 18 30 29.93 1014 10 16 0.00 0.00
9:49 am 09:49 Mostly Cloudy 64 18 61 16 88 88 ESE 16 26 29.82 1010 10 16 0.00 0.00
9:53 am 09:53 Mostly Cloudy 64 17.8 60 15.6 87 87 ESE 15 24 29.91 1013 10 16 0.00 0.00
10:53 am 10:53 Mostly Cloudy 69 20.6 60 15.6 73 73 SE 16 26 29.85 1011 10 16 0.00 0.00
11:53 am 11:53 Cloudy 70 21.1 59 15 68 68 SSE 17 28 29.85 1011 10 16 0.00 0.00
12:53 pm 12:53 Cloudy 74 23.3 59 15 60 60 SSE 23 37 29.81 1010 10 16 0.00 0.00
1:53 pm 13:53 Mostly Cloudy 74 23.3 60 15.6 62 62 SE 23 37 29.75 1007 10 16 0.00 0.00
2:53 pm 14:53 Mostly Cloudy 78 25.6 59 15 52 52 S 29 46 29.70 1006 10 16 0.00 0.00
3:09 pm 15:09 Mostly Cloudy with Nearby Thunderstorms 76 24.4 59 15 56 56 S 22 35 29.60 1002 10 16 0.00 0.00
3:18 pm 15:18 Mostly Cloudy 62 16.7 51 10.6 67 67 WNW 24 39 29.75 1007 10 16 0.00 0.00
3:26 pm 15:26 Cloudy 55 12.8 47 8.3 74 74 WNW 31 50 29.79 1009 10 16 0.00 0.00
3:37 pm 15:37 Cloudy with Nearby Thunderstorms 53 11.7 48 8.9 83 83 W 23 37 29.83 1010 10 16 0.00 0.00
3:53 pm 15:53 Cloudy with Nearby Thunderstorms 51 10.6 48 8.9 89 89 W 16 26 29.89 1012 8 13 0.00 0.00
3:58 pm 15:58 Cloudy with Thunderstorms 50 10 48 8.9 93 93 W 14 22 29.92 1013 2 3 0.00 0.00
4:05 pm 16:05 Cloudy with Thunderstorms 50 10 47 8.3 89 89 WNW 14 22 29.89 1012 1 2 0.16 4.06
4:09 pm 16:09 Cloudy with Thunderstorms 50 10 48 8.9 93 93 NW 13 20 29.88 1012 3 5 0.17 4.32
4:25 pm 16:25 Cloudy with Nearby Thunderstorms 52 11.1 46 7.8 80 80 WNW 15 24 29.87 1011 10 16 0.18 4.57
4:53 pm 16:53 Cloudy with Rain 52 11.1 47 8.3 83 83 W 14 22 29.89 1012 7 11 0.19 4.83
5:53 pm 17:53 Cloudy with Rain 51 10.6 49 9.4 92 92 NW 13 20 29.92 1013 4 6 0.14 3.56
6:53 pm 18:53 Mostly Sunny 52 11.1 48 8.9 86 86 NE 6 9 29.84 1011 10 16 0.12 3.05
7:53 pm 19:53 Sunny 52 11.1 47 8.3 83 83 SW 5 7 29.85 1011 10 16 0.00 0.00
8:53 pm 20:53 Clear 48 8.9 46 7.8 93 93 S 6 9 29.87 1012 10 16 0.00 0.00
9:53 pm 21:53 Clear 47 8.3 46 7.8 97 97 SE 7 11 29.95 1014 10 16 0.00 0.00
10:53 pm 22:53 Clear 45 7.2 44 6.7 97 97 ESE 7 11 29.95 1014 10 16 0.00 0.00
11:53 pm 23:53 Clear 43 6.1 42 5.6 97 97 ESE 3 6 29.95 1014 10 16 0.00 0.00

Powered by AerisWeather